Showing default

FLOCK 4BE 30, 60499

Orbit data source: Space-Track

FLOCK 4BE 30, 60499 is a payload satellite owned by Planet (US) in SSO that was launched on Fri, 16 Aug 2024 UTC via an FALCON 9 launch vehicle from the Air Force Western Test Range (AFWTR). Payload-class satellites include a variety of spacecraft equipped with specific instruments for various scientific and technological missions. These include communications satellites like Starlink; space stations such as the ISS; scientific satellites like the Hubble; Earth observation satellites from companies like Planet Labs, Umbra, and HawkEye 360; GPS; miniature CubeSats for education and research; and military/defense satellites.

Loading next visibility...
Identifier
60499, 2024-149AH
Orbit
SSO
Country
Flag of USUS
Related business
Manufacturer
Planet
Mission
Operational Commercial Imaging
Bus & Motor
CUBESAT 3U, Unknown motor
Mass
5.7 kg wet, 5.7 kg dry
Launch date (UTC)
2024-08-16 (1 year ago)
Launch vehicle
FALCON 9
Launch site
Air Force Western Test Range (AFWTR)
Object type
Payload
Rocket body
Debris
Shape & HBR
Box + 2 Pan, 1.0 m
Radar Cross Section
0.072 m², Medium (>0.1 m² and < 1m²)

Expand to show TLE details & history
Last TLE update: 8 hours ago

TLE from 8 hours ago
0 FLOCK 4BE 30
1 60499U 24149AH  26036.20689057  .00027288  00000-0  75517-3 0  9997
2 60499  97.3898 119.6805 0003848  42.5633 317.5909 15.36963297 81408
Epoch: 2026-02-05T04:57Z
TLE epoch observation values (Epoch: 2026-02-05T04:57:55.345Z)
Latitude
-0.00001°
Longitude
-90.16254°
Altitude
456.268 km
Speed
7.64 km/s
True Right ascension
07h 58m 43s
True Declination
0° 00' 00"
Sunlit
Object was in full shadow at epoch
Visualization orbit readout
Latitude
Unknown
Longitude
Unknown
Altitude
Unknown
Speed
Unknown
Apparent Right ascension
Unknown
Apparent Declination
Unknown
Sunlit
N/A
Visualization observer readout
Local Sidereal Time
15:20:40
Azimuth
Unknown
Elevation
Unknown
Doppler factor
Unknown
Orbital elements
Apogee altitude
454.666 km
Perigee altitude
449.409 km
Semi-major axis
6,830.175 km
Eccentricity
0.00038
Inclination
97.3898°
RAAN
119.6805°
Arg. of periapsis
42.5633°
True anomaly
317.56115°
Mean anomaly
317.5909°
Eccentric anomaly
317.57603°
Mean motion
3.84499 °/min
Orbital period
93.63 mins
BSTAR
0.00075517
Loading maneuver chart data...
Computing Atmospheric mass density...
Loading historical data...
Loading historical data...
Loading historical data...
Loading historical data...
Loading historical data...
Loading historical data...
Loading historical data...

Documentation

Showing up to 5 results
|